| time (UTC) | temp C | wind direction | speed KPH | gust KPH | rain 1hr cm | rain 24hr cm | rain mn cm | humidity % | barometer mb |
| 20260502234008 | 19 | 64 | 6.4 | 14.5 | 0.00 | 0.00 | 0.00 | 31 | 1015.8 |
| 20260502233502 | 19 | 64 | 11.3 | 17.7 | 0.00 | 0.00 | 0.00 | 31 | 1015.9 |
| 20260502233014 | 19 | 55 | 12.9 | 20.9 | 0.00 | 0.00 | 0.00 | 32 | 1016.0 |
| 20260502232504 | 19 | 91 | 8.0 | 20.9 | 0.00 | 0.00 | 0.00 | 31 | 1016.0 |
| 20260502232004 | 20 | 56 | 14.5 | 24.1 | 0.00 | 0.00 | 0.00 | 32 | 1016.1 |
| 20260502231514 | 20 | 79 | 16.1 | 25.7 | 0.00 | 0.00 | 0.00 | 31 | 1016.0 |
| 20260502231006 | 20 | 37 | 16.1 | 27.4 | 0.00 | 0.00 | 0.00 | 32 | 1016.1 |
| 20260502230507 | 20 | 65 | 17.7 | 27.4 | 0.00 | 0.00 | 0.00 | 31 | 1016.2 |
| 20260502230023 | 19 | 50 | 8.0 | 14.5 | 0.00 | 0.00 | 0.00 | 32 | 1016.3 |
| 20260502225507 | 19 | 70 | 8.0 | 14.5 | 0.00 | 0.00 | 0.00 | 32 | 1016.3 |
| 20260502225005 | 20 | 84 | 9.7 | 25.7 | 0.00 | 0.00 | 0.00 | 31 | 1016.4 |
| 20260502224521 | 20 | 31 | 17.7 | 25.7 | 0.00 | 0.00 | 0.00 | 31 | 1016.5 |
| 20260502224007 | 19 | 59 | 11.3 | 17.7 | 0.00 | 0.00 | 0.00 | 31 | 1016.5 |
| 20260502223508 | 19 | 15 | 12.9 | 22.5 | 0.00 | 0.00 | 0.00 | 32 | 1016.5 |
| 20260502223026 | 19 | 24 | 12.9 | 22.5 | 0.00 | 0.00 | 0.00 | 31 | 1016.5 |
| 20260502222509 | 19 | 51 | 16.1 | 25.7 | 0.00 | 0.00 | 0.00 | 31 | 1016.6 |
| 20260502222004 | 19 | 70 | 17.7 | 24.1 | 0.00 | 0.00 | 0.00 | 31 | 1016.6 |
| 20260502221510 | 19 | 74 | 8.0 | 27.4 | 0.00 | 0.00 | 0.00 | 31 | 1016.7 |
| 20260502221004 | 19 | 1 | 12.9 | 27.4 | 0.00 | 0.00 | 0.00 | 32 | 1016.9 |
| 20260502220507 | 20 | 30 | 19.3 | 30.6 | 0.00 | 0.00 | 0.00 | 32 | 1017.0 |
| 20260502220018 | 20 | 5 | 24.1 | 30.6 | 0.00 | 0.00 | 0.00 | 32 | 1016.9 |
| 20260502215506 | 19 | 46 | 14.5 | 22.5 | 0.00 | 0.00 | 0.00 | 33 | 1017.0 |
| 20260502215008 | 19 | 46 | 14.5 | 22.5 | 0.00 | 0.00 | 0.00 | 32 | 1017.1 |
| 20260502214534 | 19 | 70 | 14.5 | 20.9 | 0.00 | 0.00 | 0.00 | 33 | 1017.1 |
| 20260502214007 | 19 | 62 | 12.9 | 20.9 | 0.00 | 0.00 | 0.00 | 34 | 1017.2 |
| 20260502213507 | 18 | 10 | 9.7 | 24.1 | 0.00 | 0.00 | 0.00 | 36 | 1017.3 |
| 20260502213029 | 18 | 61 | 14.5 | 24.1 | 0.00 | 0.00 | 0.00 | 35 | 1017.2 |
| 20260502212508 | 18 | 46 | 20.9 | 24.1 | 0.00 | 0.00 | 0.00 | 34 | 1017.3 |
| 20260502212009 | 18 | 60 | 14.5 | 27.4 | 0.00 | 0.00 | 0.00 | 34 | 1017.4 |
| 20260502211528 | 18 | 309 | 1.6 | 27.4 | 0.00 | 0.00 | 0.00 | 33 | 1017.4 |
| 20260502211003 | 18 | 359 | 17.7 | 25.7 | 0.00 | 0.00 | 0.00 | 35 | 1017.4 |
| 20260502210504 | 18 | 22 | 12.9 | 25.7 | 0.00 | 0.00 | 0.00 | 33 | 1017.4 |
| 20260502210025 | 18 | 26 | 16.1 | 25.7 | 0.00 | 0.00 | 0.00 | 33 | 1017.5 |
| 20260502205509 | 19 | 32 | 16.1 | 25.7 | 0.00 | 0.00 | 0.00 | 34 | 1017.4 |
| 20260502205006 | 18 | 32 | 4.8 | 19.3 | 0.00 | 0.00 | 0.00 | 35 | 1017.6 |
| 20260502204520 | 18 | 58 | 11.3 | 22.5 | 0.00 | 0.00 | 0.00 | 34 | 1017.6 |
| 20260502204008 | 18 | 53 | 11.3 | 25.7 | 0.00 | 0.00 | 0.00 | 33 | 1017.7 |
| 20260502203510 | 18 | 50 | 17.7 | 25.7 | 0.00 | 0.00 | 0.00 | 34 | 1017.7 |
| 20260502203022 | 18 | 60 | 9.7 | 16.1 | 0.00 | 0.00 | 0.00 | 35 | 1017.8 |
| 20260502202506 | 19 | 68 | 4.8 | 11.3 | 0.00 | 0.00 | 0.00 | 33 | 1017.8 |
| 20260502202008 | 19 | 61 | 0.0 | 22.5 | 0.00 | 0.00 | 0.00 | 33 | 1017.8 |
| 20260502201527 | 19 | 356 | 11.3 | 24.1 | 0.00 | 0.00 | 0.00 | 32 | 1017.9 |
| 20260502201010 | 18 | 45 | 14.5 | 24.1 | 0.00 | 0.00 | 0.00 | 32 | 1017.9 |
| 20260502200509 | 18 | 28 | 9.7 | 27.4 | 0.00 | 0.00 | 0.00 | 34 | 1018.0 |
| 20260502200024 | 18 | 21 | 6.4 | 27.4 | 0.00 | 0.00 | 0.00 | 33 | 1018.1 |
| 20260502195506 | 18 | 53 | 11.3 | 24.1 | 0.00 | 0.00 | 0.00 | 34 | 1018.0 |
| 20260502195006 | 18 | 313 | 16.1 | 20.9 | 0.00 | 0.00 | 0.00 | 33 | 1018.1 |
| 20260502194516 | 18 | 325 | 12.9 | 20.9 | 0.00 | 0.00 | 0.00 | 34 | 1018.1 |
| 20260502194006 | 18 | 333 | 11.3 | 17.7 | 0.00 | 0.00 | 0.00 | 34 | 1018.2 |
| 20260502193511 | 18 | 350 | 6.4 | 22.5 | 0.00 | 0.00 | 0.00 | 34 | 1018.2 |
| 20260502193005 | 17 | 1 | 9.7 | 22.5 | 0.00 | 0.00 | 0.00 | 36 | 1018.4 |
| 20260502192505 | 17 | 36 | 16.1 | 24.1 | 0.00 | 0.00 | 0.00 | 37 | 1018.4 |
| 20260502192002 | 18 | 15 | 19.3 | 24.1 | 0.00 | 0.00 | 0.00 | 35 | 1018.5 |
| 20260502191506 | 18 | 39 | 14.5 | 22.5 | 0.00 | 0.00 | 0.00 | 35 | 1018.5 |
| 20260502191004 | 18 | 84 | 9.7 | 22.5 | 0.00 | 0.00 | 0.00 | 35 | 1018.5 |
| 20260502190504 | 18 | 70 | 14.5 | 22.5 | 0.00 | 0.00 | 0.00 | 36 | 1018.5 |
| 20260502190018 | 18 | 31 | 11.3 | 22.5 | 0.00 | 0.00 | 0.00 | 35 | 1018.6 |
| 20260502185507 | 18 | 37 | 16.1 | 24.1 | 0.00 | 0.00 | 0.00 | 35 | 1018.7 |
| 20260502185004 | 18 | 32 | 14.5 | 24.1 | 0.00 | 0.00 | 0.00 | 34 | 1018.7 |
| 20260502184514 | 18 | 10 | 11.3 | 16.1 | 0.00 | 0.00 | 0.00 | 33 | 1018.7 |
| 20260502184005 | 18 | 17 | 1.6 | 22.5 | 0.00 | 0.00 | 0.00 | 33 | 1018.8 |
| 20260502183506 | 18 | 332 | 9.7 | 22.5 | 0.00 | 0.00 | 0.00 | 34 | 1018.8 |
| 20260502183018 | 18 | 54 | 6.4 | 16.1 | 0.00 | 0.00 | 0.00 | 33 | 1018.8 |
| 20260502182507 | 18 | 79 | 8.0 | 19.3 | 0.00 | 0.00 | 0.00 | 37 | 1018.8 |
| 20260502182006 | 18 | 67 | 14.5 | 19.3 | 0.00 | 0.00 | 0.00 | 36 | 1018.9 |
| 20260502181504 | 18 | 62 | 9.7 | 29.0 | 0.00 | 0.00 | 0.00 | 35 | 1018.9 |
| 20260502181003 | 18 | 68 | 16.1 | 29.0 | 0.00 | 0.00 | 0.00 | 35 | 1019.0 |
| 20260502180506 | 18 | 46 | 9.7 | 22.5 | 0.00 | 0.00 | 0.00 | 36 | 1019.0 |
| 20260502170503 | 17 | 39 | 19.3 | 35.4 | 0.00 | 0.00 | 0.00 | 36 | 1019.0 |
| 20260502164003 | 17 | 83 | 16.1 | 20.9 | 0.00 | 0.00 | 0.00 | 38 | 1019.1 |
| 20260502163503 | 17 | 65 | 9.7 | 16.1 | 0.00 | 0.00 | 0.00 | 39 | 1019.2 |
| 20260502163019 | 17 | 68 | 1.6 | 8.0 | 0.00 | 0.00 | 0.00 | 37 | 1019.2 |
| 20260502162504 | 17 | 327 | 1.6 | 6.4 | 0.00 | 0.00 | 0.00 | 39 | 1019.2 |
| 20260502162008 | 17 | 21 | 0.0 | 8.0 | 0.00 | 0.00 | 0.00 | 39 | 1019.2 |
| 20260502161520 | 16 | 21 | 1.6 | 8.0 | 0.00 | 0.00 | 0.00 | 39 | 1019.2 |
| 20260502161007 | 16 | 107 | 4.8 | 8.0 | 0.00 | 0.00 | 0.00 | 39 | 1019.2 |
| 20260502160508 | 16 | 115 | 1.6 | 4.8 | 0.00 | 0.00 | 0.00 | 40 | 1019.2 |
| 20260502152007 | 12 | 247 | 3.2 | 8.0 | 0.00 | 0.00 | 0.00 | 46 | 1019.2 |
| 20260502151522 | 12 | 264 | 1.6 | 8.0 | 0.00 | 0.00 | 0.00 | 46 | 1019.2 |
| 20260502151006 | 11 | 285 | 3.2 | 11.3 | 0.00 | 0.00 | 0.00 | 48 | 1019.1 |
| 20260502150508 | 11 | 238 | 4.8 | 11.3 | 0.00 | 0.00 | 0.00 | 48 | 1019.1 |
| 20260502130505 | 5 | 155 | 12.9 | 19.3 | 0.00 | 0.00 | 0.00 | 64 | 1018.0 |
| 20260502123512 | 2 | 114 | 3.2 | 12.9 | 0.00 | 0.00 | 0.00 | 70 | 1017.3 |
| 20260502123028 | 2 | 216 | 6.4 | 12.9 | 0.00 | 0.00 | 0.00 | 69 | 1017.0 |
| 20260502122512 | 2 | 176 | 6.4 | 11.3 | 0.00 | 0.00 | 0.00 | 68 | 1017.0 |
| 20260502122011 | 2 | 139 | 4.8 | 12.9 | 0.00 | 0.00 | 0.00 | 70 | 1016.8 |
| 20260502121526 | 1 | 214 | 9.7 | 12.9 | 0.00 | 0.00 | 0.00 | 70 | 1016.8 |
| 20260502121010 | 2 | 223 | 8.0 | 12.9 | 0.00 | 0.00 | 0.00 | 70 | 1016.7 |
| 20260502120506 | 1 | 210 | 9.7 | 12.9 | 0.00 | 0.00 | 0.00 | 73 | 1016.8 |
| 20260502115504 | 0 | 240 | 8.0 | 14.5 | 0.00 | 0.00 | 0.00 | 75 | 1016.4 |
| 20260502115007 | 0 | 212 | 11.3 | 14.5 | 0.00 | 0.00 | 0.00 | 74 | 1016.5 |
| 20260502114529 | 1 | 221 | 9.7 | 11.3 | 0.00 | 0.00 | 0.00 | 67 | 1016.4 |
| 20260502114005 | 2 | 155 | 6.4 | 8.0 | 0.00 | 0.00 | 0.00 | 65 | 1016.3 |
| 20260502113507 | 2 | 315 | 0.0 | 4.8 | 0.00 | 0.00 | 0.00 | 65 | 1016.3 |
| 20260502113025 | 2 | 315 | 1.6 | 4.8 | 0.00 | 0.00 | 0.00 | 65 | 1016.3 |
| 20260502112507 | 2 | 315 | 3.2 | 4.8 | 0.00 | 0.00 | 0.00 | 66 | 1016.4 |
| 20260502112009 | 2 | 315 | 0.0 | 3.2 | 0.00 | 0.00 | 0.00 | 64 | 1016.4 |
| 20260502111526 | 3 | 61 | 0.0 | 6.4 | 0.00 | 0.00 | 0.00 | 63 | 1016.4 |
| 20260502111011 | 3 | 61 | 1.6 | 6.4 | 0.00 | 0.00 | 0.00 | 63 | 1016.4 |
| 20260502110510 | 2 | 12 | 1.6 | 3.2 | 0.00 | 0.00 | 0.00 | 65 | 1016.4 |
| 20260502110028 | 2 | 12 | 3.2 | 3.2 | 0.00 | 0.00 | 0.00 | 64 | 1016.3 |
| 20260502105512 | 2 | 12 | 1.6 | 9.7 | 0.00 | 0.00 | 0.00 | 64 | 1016.3 |
| 20260502105004 | 2 | 12 | 3.2 | 9.7 | 0.00 | 0.00 | 0.00 | 64 | 1016.2 |
| 20260502104521 | 2 | 11 | 8.0 | 9.7 | 0.00 | 0.00 | 0.00 | 64 | 1016.2 |
| 20260502104005 | 2 | 39 | 6.4 | 8.0 | 0.00 | 0.00 | 0.00 | 64 | 1016.1 |
| 20260502103512 | 2 | 335 | 3.2 | 8.0 | 0.00 | 0.00 | 0.00 | 64 | 1016.0 |
| 20260502103005 | 2 | 107 | 4.8 | 8.0 | 0.00 | 0.00 | 0.00 | 70 | 1016.0 |
| 20260502102503 | 1 | 346 | 4.8 | 11.3 | 0.00 | 0.00 | 0.00 | 69 | 1016.0 |
| 20260502102003 | 1 | 68 | 9.7 | 11.3 | 0.00 | 0.00 | 0.00 | 72 | 1015.9 |
| 20260502101010 | 0 | 48 | 9.7 | 11.3 | 0.00 | 0.00 | 0.00 | 74 | 1016.1 |
| 20260502100504 | 1 | 72 | 6.4 | 9.7 | 0.00 | 0.00 | 0.00 | 70 | 1016.0 |
| 20260502091504 | 3 | 218 | 8.0 | 12.9 | 0.00 | 0.00 | 0.00 | 70 | 1015.1 |
| 20260502091003 | 3 | 213 | 11.3 | 12.9 | 0.00 | 0.00 | 0.00 | 70 | 1015.0 |
| 20260502090504 | 3 | 223 | 9.7 | 11.3 | 0.00 | 0.00 | 0.00 | 72 | 1015.0 |
| 20260502071516 | 9 | 249 | 1.6 | 8.0 | 0.00 | 0.00 | 0.00 | 43 | 1014.7 |
| 20260502071006 | 11 | 339 | 3.2 | 4.8 | 0.00 | 0.00 | 0.00 | 41 | 1014.7 |
| 20260502070506 | 11 | 339 | 3.2 | 4.8 | 0.00 | 0.00 | 0.00 | 38 | 1014.7 |
| 20260502070024 | 11 | 339 | 1.6 | 3.2 | 0.00 | 0.00 | 0.00 | 39 | 1014.7 |
| 20260502065507 | 11 | 339 | 0.0 | 3.2 | 0.00 | 0.00 | 0.00 | 41 | 1014.7 |
| 20260502065008 | 11 | 339 | 0.0 | 4.8 | 0.00 | 0.00 | 0.00 | 41 | 1014.6 |
| 20260502064512 | 11 | 3 | 0.0 | 9.7 | 0.00 | 0.00 | 0.00 | 42 | 1014.5 |
| 20260502064002 | 11 | 352 | 0.0 | 9.7 | 0.00 | 0.00 | 0.00 | 42 | 1014.4 |
| 20260502063504 | 11 | 31 | 6.4 | 9.7 | 0.00 | 0.00 | 0.00 | 42 | 1014.5 |
| 20260502063018 | 11 | 46 | 3.2 | 4.8 | 0.00 | 0.00 | 0.00 | 42 | 1014.4 |
| 20260502062502 | 10 | 46 | 0.0 | 3.2 | 0.00 | 0.00 | 0.00 | 44 | 1014.4 |
| 20260502062009 | 10 | 46 | 0.0 | 3.2 | 0.00 | 0.00 | 0.00 | 44 | 1014.4 |
| 20260502061512 | 10 | 46 | 0.0 | 3.2 | 0.00 | 0.00 | 0.00 | 45 | 1014.4 |
| 20260502061006 | 10 | 46 | 0.0 | 3.2 | 0.00 | 0.00 | 0.00 | 47 | 1014.4 |
| 20260502060504 | 10 | 46 | 0.0 | 6.4 | 0.00 | 0.00 | 0.00 | 49 | 1014.5 |
| 20260502060031 | 10 | 46 | 1.6 | 6.4 | 0.00 | 0.00 | 0.00 | 47 | 1014.4 |
| 20260502055507 | 10 | 360 | 3.2 | 6.4 | 0.00 | 0.00 | 0.00 | 44 | 1014.4 |
| 20260502055009 | 11 | 358 | 1.6 | 8.0 | 0.00 | 0.00 | 0.00 | 43 | 1014.4 |
| 20260502054526 | 12 | 203 | 1.6 | 9.7 | 0.00 | 0.00 | 0.00 | 40 | 1014.3 |
| 20260502054007 | 12 | 200 | 8.0 | 11.3 | 0.00 | 0.00 | 0.00 | 37 | 1014.3 |
| 20260502053511 | 12 | 189 | 6.4 | 12.9 | 0.00 | 0.00 | 0.00 | 37 | 1014.3 |
| 20260502053025 | 12 | 196 | 9.7 | 12.9 | 0.00 | 0.00 | 0.00 | 38 | 1014.3 |
| 20260502052504 | 13 | 213 | 9.7 | 11.3 | 0.00 | 0.00 | 0.00 | 36 | 1014.3 |
| 20260502052004 | 13 | 198 | 8.0 | 9.7 | 0.00 | 0.00 | 0.00 | 36 | 1014.3 |
| 20260502051511 | 14 | 161 | 4.8 | 9.7 | 0.00 | 0.00 | 0.00 | 35 | 1014.3 |
| 20260502051006 | 15 | 165 | 3.2 | 6.4 | 0.00 | 0.00 | 0.00 | 32 | 1014.3 |
| 20260502050503 | 15 | 161 | 4.8 | 8.0 | 0.00 | 0.00 | 0.00 | 33 | 1014.3 |
| 20260502050021 | 14 | 160 | 4.8 | 8.0 | 0.00 | 0.00 | 0.00 | 34 | 1014.3 |
| 20260502045508 | 12 | 91 | 1.6 | 4.8 | 0.00 | 0.00 | 0.00 | 36 | 1014.5 |
| 20260502045006 | 12 | 8 | 1.6 | 12.9 | 0.00 | 0.00 | 0.00 | 39 | 1014.6 |
| 20260502044522 | 11 | 8 | 4.8 | 14.5 | 0.00 | 0.00 | 0.00 | 44 | 1014.6 |
| 20260502044006 | 9 | 356 | 12.9 | 14.5 | 0.00 | 0.00 | 0.00 | 49 | 1014.6 |
| 20260502043510 | 10 | 345 | 4.8 | 11.3 | 0.00 | 0.00 | 0.00 | 47 | 1014.3 |
| 20260502043029 | 9 | 257 | 4.8 | 6.4 | 0.00 | 0.00 | 0.00 | 48 | 1014.2 |
| 20260502042511 | 9 | 286 | 6.4 | 6.4 | 0.00 | 0.00 | 0.00 | 49 | 1014.1 |
| 20260502042011 | 9 | 299 | 4.8 | 4.8 | 0.00 | 0.00 | 0.00 | 48 | 1014.1 |
| 20260502041533 | 10 | 276 | 3.2 | 4.8 | 0.00 | 0.00 | 0.00 | 47 | 1014.1 |
| 20260502041002 | 10 | 276 | 4.8 | 6.4 | 0.00 | 0.00 | 0.00 | 45 | 1014.1 |
| 20260502040504 | 10 | 214 | 4.8 | 6.4 | 0.00 | 0.00 | 0.00 | 45 | 1014.0 |
| 20260502040021 | 10 | 264 | 4.8 | 11.3 | 0.00 | 0.00 | 0.00 | 44 | 1014.1 |
| 20260502035507 | 10 | 264 | 3.2 | 11.3 | 0.00 | 0.00 | 0.00 | 46 | 1014.1 |
| 20260502035007 | 10 | 250 | 9.7 | 11.3 | 0.00 | 0.00 | 0.00 | 47 | 1014.1 |
| 20260502034518 | 10 | 244 | 4.8 | 4.8 | 0.00 | 0.00 | 0.00 | 49 | 1014.0 |
| 20260502034005 | 10 | 278 | 3.2 | 4.8 | 0.00 | 0.00 | 0.00 | 48 | 1014.0 |
| 20260502033508 | 11 | 277 | 3.2 | 4.8 | 0.00 | 0.00 | 0.00 | 41 | 1014.0 |
| 20260502033027 | 12 | 217 | 0.0 | 4.8 | 0.00 | 0.00 | 0.00 | 40 | 1014.0 |
| 20260502032507 | 12 | 187 | 0.0 | 6.4 | 0.00 | 0.00 | 0.00 | 39 | 1014.0 |
| 20260502032010 | 13 | 168 | 3.2 | 6.4 | 0.00 | 0.00 | 0.00 | 38 | 1014.0 |
| 20260502031526 | 14 | 180 | 1.6 | 6.4 | 0.00 | 0.00 | 0.00 | 35 | 1014.0 |
| 20260502031011 | 15 | 186 | 1.6 | 6.4 | 0.00 | 0.00 | 0.00 | 33 | 1013.9 |
| 20260502030511 | 16 | 185 | 3.2 | 6.4 | 0.00 | 0.00 | 0.00 | 29 | 1013.9 |
| 20260502030026 | 16 | 178 | 4.8 | 6.4 | 0.00 | 0.00 | 0.00 | 27 | 1013.8 |
| 20260502025504 | 16 | 207 | 1.6 | 6.4 | 0.00 | 0.00 | 0.00 | 29 | 1013.8 |
| 20260502025004 | 17 | 207 | 4.8 | 6.4 | 0.00 | 0.00 | 0.00 | 27 | 1013.6 |
| 20260502024516 | 17 | 207 | 0.0 | 3.2 | 0.00 | 0.00 | 0.00 | 25 | 1013.7 |
| 20260502024006 | 18 | 207 | 0.0 | 8.0 | 0.00 | 0.00 | 0.00 | 23 | 1013.6 |
| 20260502023505 | 18 | 207 | 1.6 | 9.7 | 0.00 | 0.00 | 0.00 | 22 | 1013.7 |
| 20260502023022 | 18 | 207 | 8.0 | 9.7 | 0.00 | 0.00 | 0.00 | 21 | 1013.6 |
| 20260502022507 | 18 | 225 | 4.8 | 6.4 | 0.00 | 0.00 | 0.00 | 22 | 1013.6 |
| 20260502022007 | 19 | 309 | 3.2 | 4.8 | 0.00 | 0.00 | 0.00 | 21 | 1013.7 |
| 20260502021522 | 20 | 309 | 4.8 | 4.8 | 0.00 | 0.00 | 0.00 | 20 | 1013.7 |
| 20260502021008 | 20 | 309 | 4.8 | 4.8 | 0.00 | 0.00 | 0.00 | 19 | 1013.7 |
| 20260502020508 | 21 | 309 | 3.2 | 4.8 | 0.00 | 0.00 | 0.00 | 17 | 1013.7 |
| 20260502020033 | 22 | 309 | 3.2 | 4.8 | 0.00 | 0.00 | 0.00 | 16 | 1013.7 |
| 20260502015510 | 22 | 309 | 3.2 | 3.2 | 0.00 | 0.00 | 0.00 | 16 | 1013.7 |
| 20260502015007 | 22 | 309 | 1.6 | 4.8 | 0.00 | 0.00 | 0.00 | 15 | 1013.7 |
| 20260502014529 | 22 | 309 | 3.2 | 6.4 | 0.00 | 0.00 | 0.00 | 16 | 1013.7 |
| 20260502014003 | 22 | 317 | 3.2 | 6.4 | 0.00 | 0.00 | 0.00 | 17 | 1013.7 |
| 20260502013504 | 22 | 312 | 6.4 | 9.7 | 0.00 | 0.00 | 0.00 | 17 | 1013.8 |
| 20260502013018 | 22 | 307 | 6.4 | 16.1 | 0.00 | 0.00 | 0.00 | 17 | 1013.7 |
| 20260502012507 | 23 | 309 | 6.4 | 16.1 | 0.00 | 0.00 | 0.00 | 17 | 1013.8 |
| 20260502012011 | 23 | 315 | 12.9 | 16.1 | 0.00 | 0.00 | 0.00 | 16 | 1013.8 |
| 20260502011524 | 23 | 333 | 8.0 | 16.1 | 0.00 | 0.00 | 0.00 | 15 | 1013.8 |
| 20260502011007 | 23 | 312 | 9.7 | 16.1 | 0.00 | 0.00 | 0.00 | 16 | 1013.9 |
| 20260502010507 | 23 | 303 | 9.7 | 17.7 | 0.00 | 0.00 | 0.00 | 16 | 1013.9 |
| 20260502010030 | 23 | 314 | 11.3 | 17.7 | 0.00 | 0.00 | 0.00 | 15 | 1014.0 |
| 20260502005511 | 23 | 310 | 11.3 | 17.7 | 0.00 | 0.00 | 0.00 | 16 | 1014.0 |
| 20260502005008 | 23 | 311 | 12.9 | 19.3 | 0.00 | 0.00 | 0.00 | 16 | 1014.0 |
| 20260502004531 | 23 | 311 | 14.5 | 22.5 | 0.00 | 0.00 | 0.00 | 16 | 1014.1 |
| 20260502004008 | 23 | 325 | 14.5 | 25.7 | 0.00 | 0.00 | 0.00 | 16 | 1014.1 |
| 20260502003507 | 23 | 312 | 17.7 | 29.0 | 0.00 | 0.00 | 0.00 | 15 | 1014.1 |
| 20260502003026 | 23 | 314 | 20.9 | 29.0 | 0.00 | 0.00 | 0.00 | 16 | 1014.1 |
| 20260502002508 | 24 | 336 | 9.7 | 12.9 | 0.00 | 0.00 | 0.00 | 18 | 1014.1 |
| 20260502002010 | 23 | 349 | 8.0 | 24.1 | 0.00 | 0.00 | 0.00 | 18 | 1014.1 |
| 20260502001520 | 23 | 356 | 8.0 | 24.1 | 0.00 | 0.00 | 0.00 | 17 | 1014.1 |
| 20260502001002 | 23 | 345 | 19.3 | 24.1 | 0.00 | 0.00 | 0.00 | 17 | 1014.1 |
| 20260502000504 | 24 | 311 | 9.7 | 20.9 | 0.00 | 0.00 | 0.00 | 17 | 1013.9 |
| 20260502000006 | 23 | 257 | 14.5 | 19.3 | 0.00 | 0.00 | 0.00 | 16 | 1014.1 |
| 20260501235504 | 24 | 293 | 11.3 | 19.3 | 0.00 | 0.00 | 0.00 | 17 | 1014.2 |
| 20260501235003 | 24 | 281 | 11.3 | 17.7 | 0.00 | 0.00 | 0.00 | 16 | 1014.2 |
| 20260501234511 | 24 | 290 | 8.0 | 20.9 | 0.00 | 0.00 | 0.00 | 17 | 1014.2 |